Location: Unspecified
(0.0000°N, 0.0000°E)
Time: 05:08:06
(UTC+00:00)

Tiungsat 1 - Visible Passes

Search period start: 16 July 2024 00:00
Search period end: 26 July 2024 00:00
Orbit: 563 x 602 km, 64.5° (Epoch: 15 July)

Date Brightness Start Highest point End Pass type
(mag) Time Alt. Az. Time Alt. Az. Time Alt. Az.
16 Jul 9.4 04:21:27 10° N 04:25:06 29° ENE 04:28:44 10° SE visible
17 Jul 7.9 04:26:27 10° NNW 04:30:35 60° ENE 04:34:42 10° SSE visible
18 Jul 7.2 04:31:53 10° NNW 04:36:03 64° WSW 04:40:12 10° SSE visible
